| time (UTC) | temp C | wind direction | speed KPH | gust KPH | rain 1hr cm | rain 24hr cm | rain mn cm | humidity % | barometer mb |
| 20260508004550 | 13 | 331 | 1.6 | 6.4 | 0.00 | 0.03 | 0.00 | 38 | 1006.3 |
| 20260508003049 | 13 | 293 | 3.2 | 12.9 | 0.00 | 0.03 | 0.00 | 37 | 1006.2 |
| 20260508001544 | 13 | 286 | 3.2 | 9.7 | 0.00 | 0.20 | 0.00 | 36 | 1006.0 |
| 20260508000041 | 14 | 309 | 9.7 | 16.1 | 0.00 | 0.20 | 0.00 | 35 | 1005.9 |
| 20260507234542 | 14 | 314 | 6.4 | 17.7 | 0.00 | 0.20 | 0.00 | 34 | 1005.8 |
| 20260507233038 | 15 | 321 | 9.7 | 17.7 | 0.00 | 0.20 | 0.00 | 34 | 1005.7 |
| 20260507231542 | 15 | 320 | 6.4 | 17.7 | 0.00 | 0.33 | 0.00 | 33 | 1005.4 |
| 20260507230040 | 15 | 312 | 9.7 | 27.4 | 0.00 | 0.33 | 0.00 | 32 | 1005.4 |
| 20260507224516 | 16 | 322 | 9.7 | 22.5 | 0.00 | 0.33 | 0.00 | 31 | 1005.2 |
| 20260507223012 | 16 | 329 | 11.3 | 29.0 | 0.00 | 0.33 | 0.00 | 32 | 1005.0 |
| 20260507221552 | 16 | 323 | 16.1 | 29.0 | 0.00 | 0.38 | 0.00 | 35 | 1004.9 |
| 20260507220052 | 16 | 325 | 8.0 | 24.1 | 0.00 | 0.38 | 0.00 | 31 | 1004.8 |
| 20260507214533 | 16 | 306 | 11.3 | 33.8 | 0.00 | 0.38 | 0.00 | 32 | 1004.8 |
| 20260507213031 | 16 | 335 | 19.3 | 30.6 | 0.00 | 0.38 | 0.00 | 33 | 1004.5 |
| 20260507211524 | 16 | 283 | 11.3 | 24.1 | 0.00 | 0.43 | 0.00 | 33 | 1004.6 |
| 20260507210013 | 16 | 281 | 12.9 | 27.4 | 0.00 | 0.43 | 0.00 | 33 | 1004.7 |
| 20260507204553 | 16 | 301 | 14.5 | 27.4 | 0.00 | 0.43 | 0.00 | 33 | 1004.6 |
| 20260507203057 | 16 | 314 | 11.3 | 30.6 | 0.00 | 0.43 | 0.00 | 31 | 1004.6 |
| 20260507201533 | 16 | 323 | 11.3 | 29.0 | 0.00 | 0.43 | 0.00 | 31 | 1004.5 |
| 20260507200031 | 16 | 264 | 9.7 | 29.0 | 0.00 | 0.43 | 0.00 | 32 | 1004.7 |
| 20260507194512 | 16 | 324 | 12.9 | 29.0 | 0.00 | 0.43 | 0.00 | 33 | 1004.8 |
| 20260507193009 | 16 | 338 | 12.9 | 37.0 | 0.00 | 0.43 | 0.00 | 34 | 1004.8 |
| 20260507191557 | 16 | 325 | 11.3 | 30.6 | 0.00 | 0.43 | 0.43 | 33 | 1005.0 |
| 20260507190055 | 16 | 339 | 12.9 | 37.0 | 0.00 | 0.43 | 0.43 | 39 | 1005.1 |
| 20260507184554 | 16 | 355 | 6.4 | 32.2 | 0.00 | 0.43 | 0.43 | 33 | 1005.2 |
| 20260507183053 | 16 | 314 | 17.7 | 27.4 | 0.00 | 0.43 | 0.43 | 37 | 1005.2 |
| 20260507181553 | 16 | 247 | 4.8 | 22.5 | 0.00 | 0.43 | 0.43 | 37 | 1005.3 |
| 20260507180059 | 15 | 355 | 16.1 | 27.4 | 0.00 | 0.43 | 0.43 | 37 | 1005.4 |
| 20260507174606 | 15 | 355 | 11.3 | 24.1 | 0.00 | 0.43 | 0.43 | 35 | 1005.2 |
| 20260507173053 | 16 | 329 | 9.7 | 25.7 | 0.00 | 0.43 | 0.43 | 36 | 1005.4 |
| 20260507171548 | 16 | 274 | 6.4 | 29.0 | 0.00 | 0.43 | 0.43 | 40 | 1005.6 |
| 20260507170037 | 16 | 256 | 9.7 | 22.5 | 0.00 | 0.43 | 0.43 | 45 | 1005.7 |
| 20260507164544 | 15 | 306 | 14.5 | 29.0 | 0.00 | 0.43 | 0.43 | 48 | 1005.9 |
| 20260507163043 | 15 | 308 | 9.7 | 30.6 | 0.00 | 0.43 | 0.43 | 52 | 1006.1 |
| 20260507161539 | 15 | 344 | 9.7 | 19.3 | 0.00 | 0.43 | 0.43 | 50 | 1006.2 |
| 20260507160043 | 15 | 320 | 12.9 | 24.1 | 0.00 | 0.43 | 0.43 | 53 | 1006.3 |
| 20260507154532 | 15 | 318 | 9.7 | 24.1 | 0.00 | 0.43 | 0.43 | 51 | 1006.4 |
| 20260507153032 | 15 | 234 | 8.0 | 19.3 | 0.00 | 0.43 | 0.43 | 49 | 1006.4 |
| 20260507151512 | 14 | 304 | 14.5 | 24.1 | 0.00 | 0.43 | 0.43 | 51 | 1006.7 |
| 20260507150012 | 14 | 321 | 12.9 | 29.0 | 0.00 | 0.43 | 0.43 | 49 | 1006.8 |
| 20260507144611 | 14 | 14 | 8.0 | 22.5 | 0.00 | 0.43 | 0.43 | 52 | 1006.9 |
| 20260507143055 | 13 | 331 | 8.0 | 25.7 | 0.00 | 0.43 | 0.43 | 53 | 1006.9 |
| 20260507141552 | 13 | 309 | 9.7 | 20.9 | 0.00 | 0.43 | 0.43 | 55 | 1006.9 |
| 20260507140033 | 13 | 265 | 6.4 | 11.3 | 0.00 | 0.43 | 0.43 | 57 | 1006.8 |
| 20260507134532 | 12 | 355 | 3.2 | 14.5 | 0.00 | 0.43 | 0.43 | 61 | 1007.0 |
| 20260507133014 | 12 | 342 | 8.0 | 16.1 | 0.00 | 0.43 | 0.43 | 63 | 1007.3 |
| 20260507131513 | 12 | 290 | 11.3 | 17.7 | 0.00 | 0.43 | 0.43 | 64 | 1007.5 |
| 20260507130106 | 11 | 327 | 14.5 | 20.9 | 0.00 | 0.43 | 0.43 | 65 | 1007.5 |
| 20260507124624 | 11 | 349 | 9.7 | 14.5 | 0.00 | 0.43 | 0.43 | 67 | 1007.6 |
| 20260507123033 | 11 | 305 | 8.0 | 22.5 | 0.00 | 0.43 | 0.43 | 70 | 1007.5 |
| 20260507121536 | 10 | 335 | 6.4 | 17.7 | 0.00 | 0.43 | 0.43 | 72 | 1007.8 |
| 20260507120021 | 10 | 350 | 8.0 | 17.7 | 0.00 | 0.43 | 0.43 | 75 | 1007.7 |
| 20260507114520 | 10 | 326 | 8.0 | 17.7 | 0.00 | 0.43 | 0.43 | 75 | 1007.7 |
| 20260507113023 | 9 | 344 | 11.3 | 16.1 | 0.00 | 0.43 | 0.43 | 77 | 1007.3 |
| 20260507111519 | 9 | 326 | 4.8 | 12.9 | 0.00 | 0.43 | 0.43 | 79 | 1007.4 |
| 20260507110028 | 9 | 288 | 4.8 | 12.9 | 0.00 | 0.43 | 0.43 | 79 | 1007.5 |
| 20260507104515 | 9 | 321 | 6.4 | 16.1 | 0.00 | 0.43 | 0.43 | 81 | 1007.0 |
| 20260507103014 | 9 | 25 | 9.7 | 19.3 | 0.00 | 0.43 | 0.43 | 81 | 1006.9 |
| 20260507101514 | 9 | 321 | 11.3 | 17.7 | 0.00 | 0.43 | 0.43 | 81 | 1007.0 |
| 20260507100057 | 9 | 340 | 11.3 | 17.7 | 0.00 | 0.43 | 0.43 | 81 | 1006.9 |
| 20260507094554 | 9 | 321 | 9.7 | 19.3 | 0.00 | 0.43 | 0.43 | 81 | 1006.8 |
| 20260507093039 | 9 | 285 | 3.2 | 17.7 | 0.00 | 0.43 | 0.43 | 82 | 1006.9 |
| 20260507091541 | 9 | 303 | 3.2 | 9.7 | 0.00 | 0.43 | 0.43 | 82 | 1007.0 |
| 20260507090014 | 9 | 303 | 3.2 | 17.7 | 0.00 | 0.43 | 0.43 | 82 | 1006.8 |
| 20260507084518 | 9 | 321 | 11.3 | 17.7 | 0.00 | 0.43 | 0.43 | 82 | 1006.6 |
| 20260507083059 | 10 | 331 | 8.0 | 17.7 | 0.00 | 0.43 | 0.43 | 82 | 1006.2 |
| 20260507081557 | 10 | 311 | 6.4 | 19.3 | 0.00 | 0.43 | 0.43 | 83 | 1006.3 |
| 20260507080100 | 10 | 300 | 11.3 | 20.9 | 0.00 | 0.43 | 0.43 | 80 | 1006.5 |
| 20260507074606 | 10 | 307 | 11.3 | 25.7 | 0.00 | 0.43 | 0.43 | 79 | 1006.5 |
| 20260507073050 | 10 | 306 | 11.3 | 20.9 | 0.00 | 0.43 | 0.43 | 80 | 1006.2 |
| 20260507071552 | 11 | 318 | 14.5 | 24.1 | 0.00 | 0.43 | 0.43 | 81 | 1006.1 |
| 20260507070103 | 11 | 313 | 8.0 | 14.5 | 0.00 | 0.43 | 0.43 | 84 | 1005.9 |
| 20260507064544 | 11 | 302 | 3.2 | 11.3 | 0.00 | 0.43 | 0.43 | 85 | 1005.9 |
| 20260507063036 | 11 | 338 | 8.0 | 20.9 | 0.00 | 0.43 | 0.43 | 84 | 1005.6 |
| 20260507061527 | 11 | 275 | 8.0 | 17.7 | 0.00 | 0.43 | 0.43 | 84 | 1005.8 |
| 20260507060005 | 11 | 282 | 4.8 | 14.5 | 0.00 | 0.43 | 0.43 | 85 | 1005.8 |
| 20260507054503 | 11 | 309 | 4.8 | 14.5 | 0.00 | 0.43 | 0.43 | 87 | 1006.0 |
| 20260507053045 | 11 | 325 | 6.4 | 17.7 | 0.00 | 0.43 | 0.43 | 86 | 1005.9 |
| 20260507051544 | 12 | 313 | 8.0 | 19.3 | 0.00 | 0.43 | 0.43 | 85 | 1006.0 |
| 20260507050029 | 12 | 299 | 6.4 | 14.5 | 0.00 | 0.43 | 0.43 | 87 | 1006.1 |
| 20260507044521 | 12 | 298 | 9.7 | 17.7 | 0.00 | 0.43 | 0.43 | 87 | 1005.7 |
| 20260507043002 | 12 | 338 | 11.3 | 24.1 | 0.00 | 0.43 | 0.43 | 86 | 1005.7 |
| 20260507041558 | 13 | 334 | 11.3 | 22.5 | 0.00 | 0.43 | 0.43 | 86 | 1005.9 |
| 20260507040036 | 15 | 348 | 12.9 | 24.1 | 0.00 | 0.43 | 0.43 | 90 | 1005.7 |
| 20260507034538 | 15 | 261 | 3.2 | 22.5 | 0.00 | 0.43 | 0.43 | 92 | 1005.2 |
| 20260507033017 | 15 | 288 | 4.8 | 17.7 | 0.00 | 0.43 | 0.43 | 93 | 1004.9 |
| 20260507031518 | 15 | 261 | 6.4 | 16.1 | 0.00 | 0.43 | 0.43 | 92 | 1004.7 |
| 20260507030058 | 15 | 241 | 4.8 | 16.1 | 0.00 | 0.43 | 0.43 | 92 | 1004.6 |
| 20260507024557 | 15 | 200 | 3.2 | 12.9 | 0.00 | 0.43 | 0.43 | 92 | 1004.7 |
| 20260507023037 | 15 | 236 | 8.0 | 14.5 | 0.00 | 0.43 | 0.43 | 92 | 1004.8 |
| 20260507021538 | 15 | 207 | 6.4 | 16.1 | 0.00 | 0.43 | 0.43 | 92 | 1004.6 |
| 20260507020029 | 15 | 258 | 4.8 | 16.1 | 0.00 | 0.43 | 0.43 | 92 | 1004.8 |
| 20260507014519 | 15 | 224 | 6.4 | 19.3 | 0.03 | 0.43 | 0.43 | 92 | 1004.9 |
| 20260507013119 | 15 | 225 | 8.0 | 17.7 | 0.03 | 0.43 | 0.43 | 92 | 1005.0 |
| 20260507011609 | 15 | 192 | 4.8 | 12.9 | 0.03 | 0.43 | 0.43 | 92 | 1005.1 |
| 20260507010052 | 15 | 208 | 6.4 | 16.1 | 0.03 | 0.43 | 0.43 | 92 | 1005.1 |